Inquirer Daily News

Weather

Get conditions and forecasts for any City, State, ZIP code or Country:  
Northeast Philadelphia, PA
on Tuesday, December 11, 2012

Tuesday
Previous Day Next Day
Daily Summary
 ActualAverage (KTTN)Record (KTTN)
Temperature
Mean Temperature °F 37°F  
Max Temperature 57°F 44°F 65°F (1911)
Min Temperature 37°F 29°F 9°F (1880)
Degree Days
Heating Degree Days 18 28  
Month to date heating degree days 292  
Since 1 July heating degree days 1268  
Cooling Degree Days 0 0  
Month to date cooling degree days 0  
Year to date cooling degree days 965  
Moisture
Dew Point 38°F   
Average Humidity 73    
Maximum Humidity 96    
Minimum Humidity 50    
Precipitation
Precipitation 0.08 in 0.14 in 2.05 in (2008)
Month to date precipitation 1.50  
Year to date precipitation 44.24  
Wind
Wind Speed 8 mph   
Max Wind Speed 20 mph   
Max Gust Speed 21 mph   
Visibility 9 miles   
Events Rain   

Key: T is trace of precipitation, MM is missing value
Source: NWS Daily Summary
Time(EST)TemperatureDew PointHumidity Pressure Visibility Wind DirectionWind SpeedGust SpeedPrecipitationEvents Conditions
12:03 AM 57.2°F 55.4°F 94% 29.60 in 4.0 miles SW 4.6 mph - N/A   Scattered Clouds
12:14 AM 57.2°F 55.4°F 94% 29.60 in 4.0 miles WSW 4.6 mph - N/A   Mostly Cloudy
12:21 AM 57.2°F 55.4°F 94% 29.61 in 4.0 miles WSW 9.2 mph - N/A   Mostly Cloudy
12:54 AM 57.0°F 55.9°F 96% 29.62 in 4.0 miles West 9.2 mph - N/A   Overcast
1:16 AM 55.4°F 51.8°F 88% 29.64 in 10.0 miles NNW 17.3 mph - N/A   Overcast
1:54 AM 48.9°F 44.1°F 83% 29.70 in 10.0 miles NNW 19.6 mph - 0.00 in   Overcast
2:44 AM 46.4°F 42.8°F 87% 29.74 in 10.0 miles North 10.4 mph 20.7 mph 0.01 in   Overcast
2:54 AM 46.0°F 42.1°F 86% 29.74 in 10.0 miles North 11.5 mph - 0.01 in   Overcast
3:54 AM 46.0°F 39.9°F 79% 29.74 in 10.0 miles NNE 5.8 mph - N/A   Overcast
4:54 AM 45.0°F 39.9°F 82% 29.79 in 10.0 miles NW 5.8 mph - 0.01 in Rain Light Rain
5:54 AM 44.1°F 42.1°F 93% 29.85 in 10.0 miles NW 6.9 mph - 0.06 in Rain Light Rain
6:54 AM 44.1°F 39.9°F 85% 29.86 in 10.0 miles NNW 5.8 mph - 0.00 in Rain Light Rain
7:54 AM 44.1°F 39.0°F 82% 29.90 in 10.0 miles NW 6.9 mph - 0.00 in   Overcast
8:54 AM 44.1°F 39.9°F 85% 29.91 in 10.0 miles NNW 10.4 mph - N/A   Scattered Clouds
9:54 AM 46.0°F 37.9°F 73% 29.94 in 10.0 miles NNW 10.4 mph - N/A   Mostly Cloudy
10:31 AM 46.4°F 37.4°F 71% 29.97 in 10.0 miles NW 10.4 mph - N/A   Mostly Cloudy
10:43 AM 46.4°F 35.6°F 66% 29.96 in 10.0 miles NW 8.1 mph - N/A   Overcast
10:54 AM 46.9°F 36.0°F 66% 29.98 in 10.0 miles NW 8.1 mph - N/A   Overcast
11:54 AM 46.9°F 35.1°F 63% 29.96 in 10.0 miles NW 6.9 mph - N/A   Overcast
12:54 PM 48.0°F 35.1°F 61% 29.98 in 10.0 miles NW 8.1 mph - N/A   Overcast
1:54 PM 48.0°F 32.0°F 54% 29.99 in 10.0 miles NW 12.7 mph 19.6 mph N/A   Overcast
2:54 PM 48.9°F 32.0°F 52% 30.01 in 10.0 miles WNW 9.2 mph - N/A   Partly Cloudy
3:54 PM 46.9°F 32.0°F 56% 30.03 in 10.0 miles NW 3.5 mph - N/A   Overcast
4:54 PM 46.9°F 28.9°F 50% 30.06 in 10.0 miles NW 8.1 mph - N/A   Overcast
5:54 PM 45.0°F 28.0°F 52% 30.10 in 10.0 miles WNW 6.9 mph - N/A   Overcast
6:54 PM 43.0°F 28.0°F 56% 30.14 in 10.0 miles WNW 6.9 mph - N/A   Clear
7:54 PM 41.0°F 27.0°F 57% 30.16 in 10.0 miles NW 5.8 mph - N/A   Clear
8:54 PM 39.9°F 27.0°F 60% 30.18 in 10.0 miles NNW 4.6 mph - N/A   Clear
9:54 PM 39.9°F 27.0°F 60% 30.21 in 10.0 miles NW 3.5 mph - N/A   Clear
10:54 PM 37.9°F 26.1°F 62% 30.21 in 10.0 miles NNW 3.5 mph - N/A   Clear
11:54 PM 37.9°F 26.1°F 62% 30.23 in 10.0 miles NW 4.6 mph - N/A   Clear
Astronomy
Sunrise:07:12 AM (EST) Moon Rise:05:04 AM (EST)12/11
Sunset:04:34 PM (EST) Moon Set:03:11 PM (EST)12/11
Moon Phase
Dec. 11 Dec. 13 Dec. 20 Dec. 28 Jan. 04

Copyright © 2014 The Weather Underground, Inc.